Home > Weather > Leeds > Past weeks

Flag for United Kingdom Weather for the Past 2 Weeks in Leeds, England, United Kingdom

Now
32 °F

Passing clouds.


Feels Like: 23 °F
Forecast: 30 / 41 °F
Wind: 12 mph from North

Location: Leeds And Bradford

Current Time: Feb 15, 2016 at 12:12:07 AM

Latest Report: Feb 14, 2016 at 11:20 PM


Visibility: N/A

Pressure: 29.95 "Hg

Humidity: 100%

Dew point: 32 °F

Location of LeedsLocation

Historic Weather in Leeds — Graph

°F

Leeds Temperature Yesterday

Maximum temperature yesterday: 37 °F (at 10:50 AM)
Minimum temperature yesterday: 30 °F (at 9:50 PM)
Average temperature yesterday: 34 °F

High & Low Weather Summary for the Past Weeks

 TemperatureHumidityPressure
High54 °F (Feb 1, 11:20 AM)100% (Jan 31, 3:50 AM)30.21 "Hg (Jan 31, 3:50 AM)
Low30 °F (Feb 12, 4:50 AM)62% (Feb 1, 3:20 PM)28.65 "Hg (Feb 8, 6:50 AM)
Average39 °F90%29.47 "Hg
* Reported Jan 30 10:20 PM — Feb 14 10:20 PM, Leeds, Weather by CustomWeather, © 2016

Note: Actual official high and low records may vary slightly from our data, if they occured in-between our weather recording intervals... More about our weather records

Advertising

Leeds Weather History for the Previous 24 Hours

 ConditionsComfort  
Time TempWeatherWind HumidityBarometerVisibility
10:20 PM
Sun, Feb 14
32 °FPassing clouds.14 mph100%29.89 "HgN/A
9:50 PM30 °FLight snow. Passing clouds.10 mphN/A29.89 "HgN/A
9:20 PM32 °FSnow. Passing clouds.13 mph100%29.86 "Hg1 mi
8:50 PM32 °FSnow flurries. Passing clouds.10 mph93%29.86 "HgN/A
8:20 PM32 °FPassing clouds.10 mph100%29.83 "HgN/A
7:50 PM32 °FPassing clouds.10 mph100%29.80 "HgN/A
7:20 PM32 °FPassing clouds.10 mph100%29.80 "HgN/A
6:50 PM32 °FPassing clouds.9 mph100%29.77 "HgN/A
6:20 PM32 °FPassing clouds.8 mph100%29.74 "HgN/A
5:50 PM32 °FPassing clouds.9 mph100%29.74 "HgN/A
5:20 PM32 °FPassing clouds.8 mph100%29.71 "HgN/A
4:50 PM32 °FSnow flurries. Scattered clouds.12 mph100%29.68 "HgN/A
4:20 PM34 °FScattered clouds.8 mph87%29.68 "HgN/A
3:50 PM34 °FSnow showers. Scattered clouds.12 mph93%29.65 "HgN/A
3:20 PM34 °FScattered clouds.8 mph93%29.62 "HgN/A
2:50 PM36 °FScattered clouds.10 mph81%29.62 "HgN/A
2:20 PM37 °FScattered clouds.10 mph81%29.59 "HgN/A
1:50 PM37 °FScattered clouds.12 mph81%29.59 "HgN/A
1:20 PM37 °FScattered clouds.13 mph81%29.56 "HgN/A
12:50 PM37 °FScattered clouds.15 mph81%29.56 "HgN/A
12:20 PM37 °FPassing clouds.12 mph75%29.53 "HgN/A
11:50 AM37 °FPassing clouds.12 mph75%29.53 "HgN/A
11:20 AM36 °FPassing clouds.14 mph81%29.53 "HgN/A
10:50 AM37 °FPassing clouds.14 mph70%29.50 "HgN/A
10:20 AM36 °FPassing clouds.12 mph75%29.47 "HgN/A
9:50 AM36 °FPassing clouds.12 mph75%29.47 "HgN/A
9:20 AM34 °FPassing clouds.8 mph81%29.45 "HgN/A
8:50 AM34 °FPassing clouds.8 mph81%29.45 "HgN/A
8:20 AM32 °FPassing clouds.8 mph87%29.42 "HgN/A
7:20 AM32 °FSnow flurries. Passing clouds.8 mph100%29.39 "HgN/A
6:50 AM32 °FPartly cloudy.9 mph100%29.39 "HgN/A
6:20 AM32 °FSnow flurries. Passing clouds.12 mph100%29.36 "Hg6 mi
5:50 AM34 °FPassing clouds.9 mph93%29.36 "HgN/A
5:20 AM34 °FPassing clouds.9 mph93%29.33 "HgN/A
4:50 AM34 °FPassing clouds.8 mph100%29.33 "HgN/A
4:20 AM32 °FSnow flurries. Passing clouds.9 mph100%29.33 "HgN/A
3:50 AM34 °FSnow flurries. Passing clouds.14 mph93%29.33 "HgN/A
3:20 AM32 °FPassing clouds.9 mph100%29.30 "HgN/A
2:50 AM34 °FPassing clouds.12 mph93%29.30 "HgN/A
2:20 AM34 °FPassing clouds.10 mph100%29.30 "HgN/A
1:20 AM34 °FPassing clouds.9 mph93%29.27 "HgN/A
12:50 AM34 °FPassing clouds.9 mph93%29.27 "HgN/A
12:20 AM34 °FPassing clouds.9 mph87%29.27 "HgN/A
Weather by CustomWeather, © 2016

See weather overviewHow to use our weather pages